Regional Weather Roundup
Issued by NWS

Home | Current Version | Previous Version | Graphics & Text | Print | Product List | Glossary On
Versions: 1 2 3 4 5 6 7 8 9 10 11 12 13 14 15 16 17 18 19 20 21 22 23 24 25 26 27 28 29 30 31 32 33 34 35 36 37 38 39 40 41 42 43 44 45 46 47 48 49 50
000
ASUS45 KBOI 232310
RWRID

IDAHO REGIONAL WEATHER ROUNDUP
NATIONAL WEATHER SERVICE BOISE ID
500 PM MDT MON APR 23 2018

NOTE: "FAIR" INDICATES FEW OR NO CLOUDS BELOW 12000 FEET
WITH NO SIGNIFICANT WEATHER AND/OR OBSTRUCTIONS TO VISIBILITY

IDZ012-014-240000-
SOUTHWEST IDAHO


CITY           SKY/WX    TMP DP  RH WIND       PRES   REMARKS
BOISE          SUNNY     64  29  26 NW12G24   30.19F
CALDWELL       SUNNY     66  27  23 NW9       30.21F
MOUNTAIN HOME  SUNNY     65  25  22 NW17G25   30.18F
$$

IDZ016-017-240000-
SOUTHCENTRAL IDAHO


CITY           SKY/WX    TMP DP  RH WIND       PRES   REMARKS
BURLEY         SUNNY     58  20  22 NW9       30.19F
JEROME         MOSUNNY   60  25  26 SW13      30.20F
TWIN FALLS     SUNNY     59  22  24 W15       30.20F
$$

IDZ019>023-240000-
SOUTHEAST IDAHO


CITY           SKY/WX    TMP DP  RH WIND       PRES   REMARKS
IDAHO FALLS    PTSUNNY   48  38  68 CALM      30.26S
POCATELLO      PTSUNNY   51  36  56 NE15      30.26R
REXBURG        PTSUNNY   46  36  68 VRB6      30.25S
$$

IDZ006-010-011-018-031-032-240000-
CENTRAL IDAHO MOUNTAINS


CITY           SKY/WX    TMP DP  RH WIND       PRES   REMARKS
MCCALL         SUNNY     55  21  26 N14       30.22S
HAILEY         LGT RAIN  45  37  76 SW7       30.27R
STANLEY          N/A     47  24  40 VRB5      30.24R
SALMON         CLOUDY    51  29  42 N5        30.30S
CHALLIS        CLOUDY    51  28  41 N15       30.26S
$$

IDZ002-004-006-007-026-240000-
NORTHERN IDAHO


CITY           SKY/WX    TMP DP  RH WIND       PRES   REMARKS
LEWISTON       SUNNY     67  29  24 N7        30.30F
LOWELL           N/A     72  28  19 VRB6      30.26F
COEUR D`ALENE  SUNNY     63  24  22 VRB3      30.32F
MULLAN PASS    PTSUNNY   44  17  33 VRB5      30.36S
$$



USA.gov is the U.S. government's official web portal to all federal, state and local government web resources and services.